This demonstration page uses our WeatherBlox Daily Observations layout. Learn more.

Left ArrowRight Arrow

Hourly Observations for June 24, 2021

Temp ( °F °C ) Dew Point ( °F °C ) Humidity (%) Winds ( mph kmh ) Pressure ( in mb ) Visibility ( mi km ) Precip ( " mm )
12:53 am 00:53 Mostly Clear 75 23.9 61 16.1 62 62 E 6 9 30.15 1021 10 16 0.00 0.00
1:53 am 01:53 Clear 74 23.3 61 16.1 64 64 E 5 7 30.14 1021 10 16 0.00 0.00
2:53 am 02:53 Mostly Cloudy 73 22.8 62 16.7 69 69 E 6 9 30.14 1021 10 16 0.00 0.00
3:53 am 03:53 Clear 71 21.7 63 17.2 76 76 ENE 6 9 30.13 1020 10 16 0.00 0.00
4:30 am 04:30 Mostly Cloudy 71 21.7 64 17.8 79 79 E 5 7 30.12 1020 10 16 0.00 0.00
4:48 am 04:48 Cloudy 72 22 64 18 78 78 ENE 6 9 30.13 1020 10 16 0.00 0.00
4:53 am 04:53 Cloudy 72 22.2 65 18.3 79 79 E 7 11 30.14 1021 10 16 0.00 0.00
5:32 am 05:32 Cloudy 72 22.2 66 18.9 82 82 E 6 9 30.14 1021 10 16 0.00 0.00
5:53 am 05:53 Cloudy 72 22.2 66 18.9 82 82 E 8 13 30.14 1021 10 16 0.00 0.00
6:53 am 06:53 Cloudy 72 22.2 67 19.4 84 84 E 7 11 30.16 1021 10 16 0.00 0.00
7:53 am 07:53 Cloudy 72 22.2 67 19.4 84 84 SE 8 13 30.18 1022 10 16 0.00 0.00
8:53 am 08:53 Cloudy 73 22.8 67 19.4 81 81 VRB 7 11 30.19 1022 10 16 0.00 0.00
9:17 am 09:17 Cloudy 74 23.3 67 19.4 79 79 E 8 13 30.20 1023 10 16 0.00 0.00
9:33 am 09:33 Cloudy 73 22.8 67 19.4 81 81 E 8 13 30.21 1023 10 16 0.00 0.00
9:53 am 09:53 Cloudy 74 23.3 67 19.4 79 79 E 10 17 30.21 1023 10 16 0.00 0.00
10:11 am 10:11 Cloudy 74 23.3 66 18.9 76 76 SE 8 13 30.20 1023 10 16 0.00 0.00
10:53 am 10:53 Cloudy 76 24.4 67 19.4 74 74 VRB 6 9 30.21 1023 10 16 0.00 0.00
11:53 am 11:53 Cloudy 78 25.6 65 18.3 64 64 E 8 13 30.22 1023 10 16 0.00 0.00
12:22 pm 12:22 Cloudy 78 25.6 64 17.8 62 62 E 8 13 30.21 1023 10 16 0.00 0.00
12:53 pm 12:53 Cloudy 79 26.1 64 17.8 60 60 E 7 11 30.21 1023 10 16 0.00 0.00
1:53 pm 13:53 Cloudy 79 26.1 65 18.3 62 62 E 8 13 30.19 1023 10 16 0.00 0.00
2:53 pm 14:53 Mostly Sunny 82 27.8 65 18.3 56 56 E 8 13 30.18 1022 10 16 0.00 0.00
3:53 pm 15:53 Partly Cloudy 82 27.8 62 16.7 51 51 ESE 9 15 30.16 1021 10 16 0.00 0.00
4:53 pm 16:53 Mostly Cloudy 83 28.3 63 17.2 51 51 ESE 12 19 30.15 1021 10 16 0.00 0.00
5:53 pm 17:53 Mostly Cloudy 82 27.8 64 17.8 55 55 ESE 7 11 30.15 1021 10 16 0.00 0.00
6:53 pm 18:53 Mostly Sunny 82 27.8 63 17.2 53 53 SSE 8 13 30.13 1020 10 16 0.00 0.00
7:53 pm 19:53 Mostly Sunny 81 27.2 64 17.8 57 57 E 6 9 30.14 1021 10 16 0.00 0.00
8:53 pm 20:53 Mostly Clear 79 26.1 64 17.8 60 60 E 6 9 30.16 1021 10 16 0.00 0.00
9:53 pm 21:53 Clear 77 25 64 17.8 64 64 ESE 6 9 30.16 1021 10 16 0.00 0.00
10:53 pm 22:53 Clear 76 24.4 64 17.8 67 67 SE 6 9 30.19 1022 10 16 0.00 0.00
11:53 pm 23:53 Clear 74 23.3 65 18.3 74 74 SE 3 6 30.19 1022 10 16 0.00 0.00

Powered by AerisWeather